Flag for Canada Weather past 2 weeks in Inuvik, Northwest Territories, Canada

Now
23 °F

Passing clouds.


Feels Like: 13 °F
Forecast: 22 / 35 °F
Wind: 9 mph from East

Location: Inuvik


UV Index: 0 (Low)

Visibility: 15 mi


Pressure: 30.01 "Hg

Humidity: 68%

Dew point: 14 °F

Location of InuvikLocation

Historic Weather in Inuvik

°F

Inuvik temperature yesterday

Maximum temperature yesterday: 36 °F (at 6:00 PM)
Minimum temperature yesterday: 18 °F (at 6:00 AM)
Average temperature yesterday: 27 °F

Past Weeks' High & Low Weather Summary

 TemperatureHumidityPressure
High39 °F (Apr 14, 3:00 PM)93% (Apr 17, 2:48 AM)30.47 "Hg (Apr 17, 2:48 AM)
Low-20 °F (Apr 10, 5:00 AM)33% (Apr 14, 7:00 PM)29.71 "Hg (Apr 17, 11:00 PM)
Average18 °F67%30.07 "Hg
* Reported Apr 9 5:00 AM — Apr 24 5:00 AM, Inuvik, Weather by CustomWeather, © 2014

Note: Actual official high and low records may vary slightly from our data, if they occured in-between our weather recording intervals... More about our weather records

Advertising

Historic Weather Conditions — Data for Previous 24 hours

 ConditionsComfort  
Time TempWeatherWind HumidityBarometerVisibility
5:00 AM
Apr 24
25 °FPassing clouds.7 mph63%30.01 "Hg15 mi
4:00 AM27 °FPassing clouds.13 mph64%30.01 "Hg15 mi
3:00 AM27 °FPassing clouds.6 mph64%30.02 "Hg15 mi
2:00 AM28 °FPassing clouds.10 mph59%30.02 "Hg15 mi
1:00 AM30 °FPassing clouds.8 mph59%30.03 "Hg15 mi
12:00 AM30 °FPassing clouds.7 mph59%30.03 "Hg15 mi
11:00 PM
Apr 23
32 °FPassing clouds.8 mph60%30.03 "Hg15 mi
10:00 PM34 °FPassing clouds.2 mph60%30.03 "Hg15 mi
9:00 PM36 °FPassing clouds.7 mph56%30.03 "Hg15 mi
8:00 PM36 °FPassing clouds.8 mph52%30.04 "Hg15 mi
7:00 PM36 °FScattered clouds.15 mph52%30.05 "Hg15 mi
6:00 PM36 °FPartly sunny.13 mph52%30.07 "Hg15 mi
5:00 PM34 °FPartly sunny.14 mph56%30.08 "Hg15 mi
4:00 PM34 °FChilly.6 mph56%30.09 "HgN/A
3:00 PM32 °FPartly sunny.14 mph51%30.10 "Hg15 mi
2:00 PM32 °FPassing clouds.14 mph51%30.11 "Hg15 mi
1:00 PM28 °FPassing clouds.12 mph59%30.13 "Hg15 mi
12:00 PM25 °FPassing clouds.12 mph63%30.14 "Hg15 mi
11:00 AM23 °FSunny.12 mph63%30.16 "Hg15 mi
10:00 AM21 °FSunny.8 mph63%30.17 "Hg15 mi
9:00 AM19 °FClear.13 mph63%30.18 "Hg15 mi
8:00 AM18 °FClear.10 mph68%30.19 "Hg15 mi
7:00 AM18 °FClear.13 mph68%30.20 "Hg15 mi
6:00 AM18 °FPassing clouds.14 mph68%30.20 "Hg15 mi
Weather by CustomWeather, © 2014

See weather overview